Skip Page Navigation
NASA JPL Caltech
NASA Logo - Jet Propulsion Laboratory + View the NASA Portal
+ Near-Earth Object (NEO) Program
Search JPL
JPL Home Earth Solar System Stars & Galaxies Technology
JPL Solar System Dynamics
BODIES ORBITS EPHEMERIDES TOOLS PHYSICAL DATA DISCOVERY FAQ SITE MAP
JPL Small-Body Database Browser
Search: [ help ]  
10051 Albee (1987 QG6)
Classification: Mars-crossing Asteroid          SPK-ID: 2010051
Ephemeris | Orbit Diagram | Orbital Elements | Physical Parameters | Discovery Circumstances ]

[ hide orbit diagram ]
Orbit Diagram
Note: Make sure you have Java enabled on your browser to see the applet. This applet is provided as a 3D orbit visualization tool. The applet was implemented using 2-body methods, and hence should not be used for determining accurate long-term trajectories (over several years or decades) or planetary encounter circumstances. For accurate long-term ephemerides, please instead use our Horizons system.
Orbit Viewer

Additional Notes: the orbits shown in the applet are color coded. The planets are white lines, and the asteroid/comet is a blue line. The bright white line indicates the portion of the orbit that is above the ecliptic plane, and the darker portion is below the ecliptic plane. Likewise for the asteroid/comet orbit, the light blue indicates the portion above the ecliptic plane, and the dark blue the portion below the ecliptic plane.

Orbit Viewer applet originally written and kindly provided by Osamu Ajiki (AstroArts), and further modified by Ron Baalke (JPL).


Orbital Elements at Epoch 2456400.5 (2013-Apr-18.0) TDB
Reference: JPL 1 (heliocentric ecliptic J2000)
 Element Value Uncertainty (1-sigma)   Units 
e .3435888887649976 1.0958e-07  
a 2.292215910031438 1.8302e-08 AU
q 1.504635992694288 2.4898e-07 AU
i 21.87400313402793 1.3027e-05 deg
node 159.0205053428366 2.5087e-05 deg
peri 242.7735864680711 2.9512e-05 deg
M 111.2858278651011 2.4017e-05 deg
tp 2456008.650703951045
(2012-Mar-22.15070395)
8.0693e-05 JED
period 1267.598482967853
3.47
1.5182e-05
4.157e-08
d
yr
n .2840016021138845 3.4014e-09 deg/d
Q 3.079795827368587 2.459e-08 AU
  Orbit Determination Parameters
   # obs. used (total)      353  
   data-arc span      9363 days (25.63 yr)  
   first obs. used      1987-08-23  
   last obs. used      2013-04-11  
   planetary ephem.      DE405  
   SB-pert. ephem.      SB405-CPV-2  
   condition code      0  
   fit RMS      .70555  
   data source      ORB  
   producer      Otto Matic  
   solution date      2013-Apr-29 13:38:15  

Additional Information
 Earth MOID = .611905 AU 
 T_jup = 3.427 
[ show covariance matrix ]

Ephemeris | Orbit Diagram | Orbital Elements | Physical Parameters | Discovery Circumstances ]

Physical Parameter Table
Parameter Symbol Value Units Sigma Reference Notes
absolute magnitude H 14.9 mag n/a PDS3 (MPC 33870)  

10051 Albee           Discovered 1987 Aug. 23 by E. F. Helin at Palomar.
Arden L. Albee (b. 1928), Caltech professor of geology and planetary sciences, was dean of graduate studies for the last sixteen years. Albee has served in many capacities, including chief scientist of JPL, project scientist for the Mars Observer mission, and he has been a principal figure in many Mars-related science missions.
NOTE: some special characters may not display properly (any characters within {} are an attempt to place the proper accent above a character)
Reference: 20001111/MPCPages.arcLast Updated: 2013-03-29

Alternate Designations
 1987 QG6 = 1992 EB28 = 1994 QK 
Ephemeris | Orbit Diagram | Orbital Elements | Physical Parameters | Discovery Circumstances ]
ABOUT SSD CREDITS/AWARDS PRIVACY/COPYRIGHT GLOSSARY LINKS
FirstGov 2013-May-19 07:28 UT
(server date/time)  
NASA Home Page
Site Manager:   Donald K. Yeomans
Webmaster  Alan B. Chamberlin